{"data":{"norad_id":59944,"epoch":"2026-05-25T00:18:08.748864Z","epoch_age_seconds":71004,"freshness":"FRESH","line1":"1 59944U 24106Y   26145.01260126  .00002160  00000+0  87985-4 0  9999","line2":"2 59944  42.9986 261.6396 0001181 274.8616  85.2101 15.27583804112249","mean_motion":15.27583804,"eccentricity":0.0001181,"inclination_deg":42.9986,"raan_deg":261.6396,"arg_perigee_deg":274.8616,"mean_anomaly_deg":85.2101,"bstar":8.7985e-5,"rev_number":11224,"period_min":94.266513969927,"perigee_km":482.22740078609,"apogee_km":483.84801025153,"semimajor_km":6861.1747055188,"source":"CELESTRAK","updated_at":"2026-05-25T13:38:19.126466Z"}}